Terug naar catalogus

METEOR 2-17 DEB

ActiefPO
NORAD 38281·DEBRIS·🇷🇺 Russia

Gelanceerd Jan 30, 1988 vanaf Plesetsk Cosmodrome

Loading…

Volgende Passages (komende 24 uur)

TLE

VerouderdSource: Space-Track

Epoch: Aug 21, 2026, 05:21 UTC

1 38281U 88005AJ  26233.22307891  .00001967  00000-0  11808-2 0  9994
2 38281  82.5270 206.7438 0016236  36.9101 323.3185 14.06409189600683

Volg METEOR 2-17 DEB in realtime met AllMySat

Download on the App Store